| time (UTC) | temp F | wind direction | speed MPH | gust MPH | rain 1hr in | rain 24hr in | rain mn in | humidity % | barometer mb |
| 20260506203609 | 52 | 315 | 1.0 | 3.0 | 0.00 | 0.00 | 0.00 | 46 | 977.2 |
| 20260506202609 | 52 | 315 | 1.0 | 0.0 | 0.00 | 0.00 | 0.00 | 46 | 977.2 |
| 20260506201614 | 53 | 270 | 0.0 | 2.0 | 0.00 | 0.00 | 0.00 | 46 | 977.0 |
| 20260506200614 | 53 | 270 | 0.0 | 0.0 | 0.00 | 0.00 | 0.00 | 46 | 977.0 |
| 20260506195614 | 53 | 292 | 0.0 | 0.0 | 0.00 | 0.00 | 0.00 | 46 | 976.8 |
| 20260506194614 | 54 | 337 | 0.0 | 0.0 | 0.00 | 0.00 | 0.00 | 45 | 976.8 |
| 20260506193614 | 54 | 292 | 1.0 | 0.0 | 0.00 | 0.00 | 0.00 | 45 | 976.6 |
| 20260506192614 | 54 | 315 | 0.0 | 2.0 | 0.00 | 0.00 | 0.00 | 45 | 976.6 |
| 20260506191614 | 54 | 292 | 0.0 | 0.0 | 0.00 | 0.00 | 0.00 | 45 | 976.4 |
| 20260506190614 | 54 | 315 | 1.0 | 0.0 | 0.00 | 0.00 | 0.00 | 45 | 976.4 |
| 20260506185614 | 54 | 270 | 2.0 | 4.0 | 0.00 | 0.00 | 0.00 | 45 | 975.9 |
| 20260506184613 | 55 | 292 | 2.0 | 2.0 | 0.00 | 0.00 | 0.00 | 45 | 975.9 |
| 20260506183613 | 55 | 315 | 3.0 | 4.0 | 0.00 | 0.00 | 0.00 | 45 | 975.8 |
| 20260506182613 | 55 | 315 | 1.0 | 5.0 | 0.00 | 0.00 | 0.00 | 45 | 975.8 |
| 20260506181613 | 56 | 337 | 1.0 | 0.0 | 0.00 | 0.00 | 0.00 | 45 | 975.6 |
| 20260506180613 | 56 | 292 | 1.0 | 2.0 | 0.00 | 0.00 | 0.00 | 45 | 975.6 |
| 20260506175613 | 56 | 360 | 1.0 | 2.0 | 0.00 | 0.00 | 0.00 | 45 | 975.4 |
| 20260506174613 | 57 | 360 | 0.0 | 0.0 | 0.00 | 0.00 | 0.00 | 45 | 975.4 |
| 20260506173613 | 57 | 337 | 0.0 | 0.0 | 0.00 | 0.00 | 0.00 | 45 | 975.4 |
| 20260506172613 | 57 | 22 | 1.0 | 0.0 | 0.00 | 0.00 | 0.00 | 45 | 975.4 |
| 20260506171613 | 57 | 337 | 1.0 | 2.0 | 0.00 | 0.00 | 0.00 | 45 | 975.1 |
| 20260506170612 | 57 | 247 | 0.0 | 0.0 | 0.00 | 0.00 | 0.00 | 45 | 975.1 |
| 20260506165612 | 57 | 315 | 1.0 | 2.0 | 0.00 | 0.00 | 0.00 | 45 | 975.2 |
| 20260506164612 | 58 | 270 | 2.0 | 1.0 | 0.00 | 0.00 | 0.00 | 45 | 975.2 |
| 20260506163612 | 58 | 270 | 2.0 | 1.0 | 0.00 | 0.00 | 0.00 | 45 | 975.4 |
| 20260506162612 | 59 | 360 | 3.0 | 4.0 | 0.00 | 0.00 | 0.00 | 46 | 975.4 |
| 20260506161612 | 60 | 337 | 2.0 | 5.0 | 0.00 | 0.00 | 0.00 | 46 | 975.4 |
| 20260506160612 | 60 | 360 | 3.0 | 7.0 | 0.00 | 0.00 | 0.00 | 46 | 975.4 |
| 20260506155612 | 61 | 337 | 3.0 | 5.0 | 0.00 | 0.00 | 0.00 | 46 | 975.1 |
| 20260506154612 | 61 | 22 | 3.0 | 4.0 | 0.00 | 0.00 | 0.00 | 46 | 975.1 |
| 20260506153612 | 62 | 315 | 2.0 | 2.0 | 0.00 | 0.00 | 0.00 | 46 | 975.2 |
| 20260506152612 | 61 | 315 | 2.0 | 3.0 | 0.00 | 0.00 | 0.00 | 47 | 975.2 |
| 20260506151612 | 62 | 202 | 2.0 | 2.0 | 0.00 | 0.00 | 0.00 | 47 | 975.1 |
| 20260506150611 | 62 | 22 | 1.0 | 0.0 | 0.00 | 0.00 | 0.00 | 47 | 975.1 |
| 20260506145611 | 62 | 315 | 1.0 | 4.0 | 0.00 | 0.00 | 0.00 | 47 | 974.8 |
| 20260506144611 | 61 | 315 | 1.0 | 0.0 | 0.00 | 0.00 | 0.00 | 47 | 974.8 |
| 20260506143611 | 60 | 270 | 2.0 | 6.0 | 0.00 | 0.00 | 0.00 | 48 | 974.9 |
| 20260506142611 | 60 | 315 | 2.0 | 2.0 | 0.00 | 0.00 | 0.00 | 48 | 974.9 |
| 20260506141611 | 62 | 360 | 2.0 | 0.0 | 0.00 | 0.00 | 0.00 | 48 | 974.8 |
| 20260506140612 | 61 | 157 | 2.0 | 2.0 | 0.00 | 0.00 | 0.00 | 48 | 974.8 |
| 20260506135611 | 61 | 247 | 2.0 | 3.0 | 0.00 | 0.00 | 0.00 | 49 | 974.8 |
| 20260506134611 | 61 | 247 | 2.0 | 3.0 | 0.00 | 0.00 | 0.00 | 48 | 974.8 |
| 20260506133611 | 61 | 225 | 2.0 | 5.0 | 0.00 | 0.00 | 0.00 | 49 | 975.1 |
| 20260506132611 | 61 | 270 | 3.0 | 4.0 | 0.00 | 0.00 | 0.00 | 49 | 975.1 |
| 20260506131611 | 61 | 247 | 3.0 | 3.0 | 0.00 | 0.00 | 0.00 | 49 | 974.8 |
| 20260506130611 | 63 | 292 | 3.0 | 6.0 | 0.00 | 0.00 | 0.00 | 49 | 974.8 |
| 20260506125610 | 65 | 292 | 2.0 | 3.0 | 0.00 | 0.00 | 0.00 | 50 | 974.6 |
| 20260506124610 | 63 | 270 | 3.0 | 1.0 | 0.00 | 0.00 | 0.00 | 50 | 974.6 |
| 20260506123611 | 63 | 337 | 3.0 | 4.0 | 0.00 | 0.00 | 0.00 | 50 | 974.3 |
| 20260506122610 | 63 | 135 | 3.0 | 2.0 | 0.00 | 0.00 | 0.00 | 50 | 974.3 |
| 20260506121610 | 63 | 247 | 3.0 | 0.0 | 0.00 | 0.00 | 0.00 | 51 | 974.5 |
| 20260506120610 | 62 | 180 | 3.0 | 8.0 | 0.00 | 0.00 | 0.00 | 51 | 974.5 |
| 20260506115610 | 61 | 135 | 3.0 | 4.0 | 0.00 | 0.00 | 0.00 | 53 | 974.6 |
| 20260506114610 | 63 | 157 | 2.0 | 6.0 | 0.00 | 0.00 | 0.00 | 53 | 974.6 |
| 20260506113610 | 64 | 67 | 3.0 | 1.0 | 0.00 | 0.00 | 0.00 | 53 | 974.6 |
| 20260506112610 | 62 | 157 | 3.0 | 11.0 | 0.00 | 0.00 | 0.00 | 53 | 974.6 |
| 20260506111609 | 65 | 247 | 3.0 | 3.0 | 0.00 | 0.00 | 0.00 | 55 | 974.6 |
| 20260506110609 | 64 | 225 | 1.0 | 6.0 | 0.00 | 0.00 | 0.00 | 54 | 974.6 |
| 20260506105610 | 65 | 202 | 3.0 | 5.0 | 0.00 | 0.00 | 0.00 | 56 | 974.8 |
| 20260506104609 | 63 | 202 | 2.0 | 4.0 | 0.00 | 0.00 | 0.00 | 56 | 974.8 |
| 20260506103609 | 63 | 247 | 3.0 | 5.0 | 0.00 | 0.00 | 0.00 | 56 | 974.6 |
| 20260506102609 | 63 | 337 | 3.0 | 4.0 | 0.00 | 0.00 | 0.00 | 56 | 974.6 |
| 20260506101609 | 62 | 247 | 3.0 | 6.0 | 0.00 | 0.00 | 0.00 | 56 | 974.5 |
| 20260506100609 | 62 | 225 | 2.0 | 0.0 | 0.00 | 0.00 | 0.00 | 56 | 974.5 |
| 20260506095609 | 62 | 135 | 2.0 | 3.0 | 0.00 | 0.00 | 0.00 | 56 | 974.6 |
| 20260506094609 | 61 | 225 | 2.0 | 1.0 | 0.00 | 0.00 | 0.00 | 57 | 974.6 |
| 20260506093614 | 64 | 315 | 2.0 | 3.0 | 0.00 | 0.00 | 0.00 | 58 | 974.5 |
| 20260506092614 | 63 | 247 | 3.0 | 4.0 | 0.00 | 0.00 | 0.00 | 57 | 974.5 |
| 20260506091614 | 61 | 225 | 2.0 | 2.0 | 0.00 | 0.00 | 0.00 | 57 | 974.4 |
| 20260506090614 | 60 | 180 | 2.0 | 4.0 | 0.00 | 0.00 | 0.00 | 58 | 974.4 |
| 20260506085614 | 59 | 112 | 2.0 | 2.0 | 0.00 | 0.00 | 0.00 | 58 | 974.1 |
| 20260506084614 | 58 | 180 | 2.0 | 7.0 | 0.00 | 0.00 | 0.00 | 58 | 974.1 |
| 20260506083614 | 58 | 247 | 1.0 | 0.0 | 0.00 | 0.00 | 0.00 | 58 | 973.9 |
| 20260506082614 | 58 | 202 | 1.0 | 0.0 | 0.00 | 0.00 | 0.00 | 58 | 973.9 |
| 20260506081613 | 57 | 157 | 1.0 | 3.0 | 0.00 | 0.00 | 0.00 | 58 | 973.9 |
| 20260506080613 | 57 | 157 | 2.0 | 1.0 | 0.00 | 0.00 | 0.00 | 58 | 973.9 |
| 20260506072613 | 57 | 180 | 2.0 | 4.0 | 0.00 | 0.00 | 0.00 | 57 | 973.8 |
| 20260506071613 | 57 | 225 | 2.0 | 2.0 | 0.00 | 0.00 | 0.00 | 57 | 973.6 |
| 20260506070613 | 56 | 180 | 1.0 | 0.0 | 0.00 | 0.00 | 0.00 | 57 | 973.6 |
| 20260506061612 | 54 | 180 | 1.0 | 4.0 | 0.00 | 0.00 | 0.00 | 58 | 973.5 |
| 20260506060612 | 54 | 135 | 0.0 | 0.0 | 0.00 | 0.00 | 0.00 | 57 | 973.5 |
| 20260506050612 | 53 | 157 | 0.0 | 0.0 | 0.00 | 0.00 | 0.00 | 57 | 973.2 |
| 20260506044612 | 52 | 315 | 1.0 | 0.0 | 0.00 | 0.00 | 0.00 | 57 | 973.3 |
| 20260506043611 | 52 | 315 | 0.0 | 3.0 | 0.00 | 0.00 | 0.00 | 57 | 973.4 |
| 20260506042611 | 51 | 247 | 0.0 | 0.0 | 0.00 | 0.00 | 0.00 | 57 | 973.4 |
| 20260506041611 | 50 | 225 | 0.0 | 0.0 | 0.00 | 0.00 | 0.00 | 57 | 973.4 |
| 20260506040611 | 50 | 202 | 0.0 | 0.0 | 0.00 | 0.00 | 0.00 | 57 | 973.4 |
| 20260506035611 | 50 | 202 | 0.0 | 0.0 | 0.00 | 0.00 | 0.00 | 57 | 973.6 |
| 20260506034611 | 50 | 157 | 0.0 | 0.0 | 0.00 | 0.00 | 0.00 | 57 | 973.6 |
| 20260506033611 | 50 | 225 | 0.0 | 0.0 | 0.00 | 0.00 | 0.00 | 57 | 973.6 |
| 20260506032611 | 51 | 180 | 0.0 | 0.0 | 0.00 | 0.00 | 0.00 | 57 | 973.6 |
| 20260506031611 | 51 | 247 | 0.0 | 0.0 | 0.00 | 0.00 | 0.00 | 57 | 973.5 |
| 20260506030611 | 51 | 180 | 0.0 | 3.0 | 0.00 | 0.00 | 0.00 | 57 | 973.5 |
| 20260506025610 | 52 | 225 | 0.0 | 0.0 | 0.00 | 0.00 | 0.00 | 56 | 973.7 |
| 20260506024611 | 52 | 315 | 1.0 | 0.0 | 0.00 | 0.00 | 0.00 | 56 | 973.7 |
| 20260506023610 | 52 | 180 | 1.0 | 0.0 | 0.00 | 0.00 | 0.00 | 56 | 973.5 |
| 20260506022610 | 53 | 135 | 1.0 | 2.0 | 0.00 | 0.00 | 0.00 | 56 | 973.5 |
| 20260506021610 | 53 | 157 | 3.0 | 9.0 | 0.00 | 0.00 | 0.00 | 56 | 973.8 |
| 20260506020610 | 53 | 225 | 1.0 | 2.0 | 0.00 | 0.00 | 0.00 | 56 | 973.8 |
| 20260506015610 | 53 | 180 | 1.0 | 2.0 | 0.00 | 0.00 | 0.00 | 56 | 973.8 |
| 20260506014610 | 53 | 157 | 0.0 | 0.0 | 0.00 | 0.00 | 0.00 | 56 | 973.8 |
| 20260506013610 | 54 | 157 | 1.0 | 0.0 | 0.00 | 0.00 | 0.00 | 56 | 973.9 |
| 20260506012610 | 54 | 202 | 1.0 | 0.0 | 0.00 | 0.00 | 0.00 | 56 | 973.9 |
| 20260506011611 | 53 | 135 | 0.0 | 0.0 | 0.00 | 0.00 | 0.00 | 56 | 974.1 |
| 20260506010610 | 54 | 180 | 1.0 | 2.0 | 0.00 | 0.00 | 0.00 | 56 | 974.1 |
| 20260506005610 | 55 | 157 | 0.0 | 0.0 | 0.00 | 0.00 | 0.00 | 56 | 974.3 |
| 20260506004609 | 55 | 202 | 1.0 | 3.0 | 0.00 | 0.00 | 0.00 | 55 | 974.3 |
| 20260506003609 | 55 | 225 | 1.0 | 2.0 | 0.00 | 0.00 | 0.00 | 55 | 974.4 |
| 20260506002609 | 56 | 225 | 1.0 | 0.0 | 0.00 | 0.00 | 0.00 | 55 | 974.4 |
| 20260506001609 | 56 | 247 | 2.0 | 4.0 | 0.00 | 0.00 | 0.00 | 55 | 974.8 |
| 20260506000609 | 56 | 157 | 2.0 | 1.0 | 0.00 | 0.00 | 0.00 | 55 | 974.8 |
| 20260505235609 | 56 | 247 | 2.0 | 4.0 | 0.00 | 0.00 | 0.00 | 55 | 974.8 |
| 20260505234609 | 56 | 270 | 2.0 | 1.0 | 0.00 | 0.00 | 0.00 | 54 | 974.8 |
| 20260505233614 | 56 | 247 | 3.0 | 7.0 | 0.00 | 0.00 | 0.00 | 54 | 975.1 |
| 20260505232614 | 56 | 202 | 1.0 | 6.0 | 0.00 | 0.00 | 0.00 | 54 | 975.1 |
| 20260505231614 | 55 | 247 | 0.0 | 1.0 | 0.00 | 0.00 | 0.00 | 55 | 975.1 |
| 20260505230614 | 54 | 180 | 0.0 | 0.0 | 0.00 | 0.00 | 0.00 | 55 | 975.1 |
| 20260505225614 | 54 | 247 | 0.0 | 0.0 | 0.00 | 0.00 | 0.00 | 55 | 975.0 |
| 20260505224613 | 54 | 157 | 0.0 | 0.0 | 0.00 | 0.00 | 0.00 | 55 | 975.0 |
| 20260505223613 | 54 | 180 | 0.0 | 0.0 | 0.00 | 0.00 | 0.00 | 55 | 975.4 |
| 20260505222613 | 54 | 180 | 0.0 | 0.0 | 0.00 | 0.00 | 0.00 | 55 | 975.4 |
| 20260505221613 | 54 | 247 | 0.0 | 0.0 | 0.00 | 0.00 | 0.00 | 55 | 975.6 |
| 20260505220613 | 54 | 202 | 0.0 | 0.0 | 0.00 | 0.00 | 0.00 | 55 | 975.6 |
| 20260505215613 | 54 | 157 | 0.0 | 0.0 | 0.00 | 0.00 | 0.00 | 55 | 975.8 |
| 20260505214613 | 54 | 180 | 0.0 | 0.0 | 0.00 | 0.00 | 0.00 | 55 | 975.8 |
| 20260505213613 | 54 | 270 | 0.0 | 0.0 | 0.00 | 0.00 | 0.00 | 54 | 976.0 |
| 20260505212613 | 54 | 202 | 0.0 | 0.0 | 0.00 | 0.00 | 0.00 | 54 | 976.0 |
| 20260505211613 | 54 | 180 | 0.0 | 0.0 | 0.00 | 0.00 | 0.00 | 54 | 975.9 |
| 20260505210613 | 54 | 180 | 0.0 | 0.0 | 0.00 | 0.00 | 0.00 | 54 | 975.9 |
| 20260505205613 | 55 | 157 | 0.0 | 0.0 | 0.00 | 0.00 | 0.00 | 54 | 976.0 |
| 20260505204613 | 55 | 180 | 0.0 | 0.0 | 0.00 | 0.00 | 0.00 | 54 | 976.0 |